CZ-6A DEB, 54529

Orbit data source: Space-Track

CZ-6A DEB, 54529 is space debris in SSO originally from a launch on Fri, 11 Nov 2022 UTC launched from the Taiyaun Space Center, China (TSC). Debris objects in space refer to the collection of defunct objects orbiting the Earth. Examples of debris include non-operational satellites, rocket bodies, and fragments generated from explosions, collisions, or faulty payload assembly.

Loading next visibility...
Identifier
54529, 2022-151KH
Orbit
SSO
Country
Flag of CNCN / PRC
Related business
Manufacturer
SAST
Mission
Spacecraft
Bus & Motor
Unknown
Mass
Unknown
Launch date (UTC)
2022-11-11 (4 years ago)
Launch vehicle
Unknown
Launch site
Taiyaun Space Center, China (TSC)
Object type
Payload
Rocket body
Debris
Shape & HBR
Unknown shape, 0.4 m
Radar Cross Section
Medium (>0.1 m² and <1 m²)

Expand to show TLE details & history
Last TLE update: 10 hours ago

TLE from 10 hours ago
0 CZ-6A DEB
1 54529U 22151KH  26236.39084233 -.00000036  00000-0  41798-5 0  9991
2 54529  98.8433 232.9542 0046097 136.8718 223.6078 14.09407278194283
Epoch: 2026-08-24T09:22Z
TLE epoch observation values (Epoch: 2026-08-24T09:22:48.777Z)
Latitude
-0.00002°
Longitude
119.57774°
Altitude
888.538 km
Speed
7.396 km/s
True Right ascension
15h 31m 49s
True Declination
0° 00' 00"
Sunlit
Object was in daylight at epoch
Visualization orbit readout
Latitude
Unknown
Longitude
Unknown
Altitude
Unknown
Speed
Unknown
Apparent Right ascension
Unknown
Apparent Declination
Unknown
Sunlit
N/A
Visualization observer readout
Local Sidereal Time
10:15:21
Azimuth
Unknown
Elevation
Unknown
Doppler factor
Unknown
Orbital elements
Apogee altitude
891.939 km
Perigee altitude
825.221 km
Semi-major axis
7,236.717 km
Eccentricity
0.00461
Inclination
98.8433°
RAAN
232.9542°
Arg. of periapsis
136.8718°
True anomaly
223.24498°
Mean anomaly
223.6078°
Eccentric anomaly
223.42624°
Mean motion
3.52558 °/min
Orbital period
102.11 mins
BSTAR
0.0000041798
Loading maneuver chart data...
Computing Atmospheric mass density...

Documentation

Showing up to 5 results
|